FW2738 Weather Reports


Display with metric or nautical units.
time (UTC)temp
F
wind
direction
speed
MPH
gust
MPH
rain 1hr
in
rain 24hr
in
rain mn
in
humidity
%
barometer
mb
20260509074515 68 109 6.0 9.0 0.00 0.12 0.00 89 1008.8
20260509073034 68 119 3.0 8.0 0.00 0.12 0.00 88 1009.1
20260509071513 68 113 0.0 2.0 0.00 0.12 0.00 88 1009.2
20260509070016 68 71 0.0 4.0 0.00 0.12 0.00 88 1009.4
20260509064512 68 15 2.0 5.0 0.00 0.12 0.00 88 1009.7
20260509063011 68 29 3.0 5.0 0.00 0.12 0.00 88 1009.7
20260509061509 68 59 4.0 9.0 0.00 0.12 0.00 88 1009.3
20260509060016 68 90 5.0 8.0 0.00 0.12 0.00 87 1009.0
20260509054513 68 138 0.0 4.0 0.00 0.12 0.00 88 1009.1
20260509053012 68 196 0.0 5.0 0.00 0.12 0.00 88 1009.3
20260509051505 68 134 3.0 7.0 0.00 0.12 0.00 88 1009.2
20260509050006 68 214 3.0 5.0 0.00 0.12 0.12 87 1009.3
20260509044503 68 179 4.0 7.0 0.00 0.12 0.12 86 1009.0
20260509043002 68 173 8.0 12.0 0.00 0.12 0.12 86 1008.7
20260509041502 68 181 4.0 6.0 0.00 0.12 0.12 86 1008.7
20260509040002 68 162 2.0 4.0 0.00 0.12 0.12 85 1008.2
20260509034501 69 174 6.0 9.0 0.00 0.12 0.12 83 1008.5
20260509033100 70 165 2.0 10.0 0.00 0.12 0.12 81 1008.8
20260509031600 70 140 6.0 11.0 0.00 0.12 0.12 79 1008.4
20260509030100 71 160 5.0 7.0 0.00 0.12 0.12 81 1008.5
20260509024559 71 128 0.0 0.0 0.00 0.12 0.12 80 1009.3
20260509023058 71 128 1.0 3.0 0.00 0.12 0.12 79 1008.9
20260509021558 71 88 0.0 0.0 0.00 0.12 0.12 78 1008.4
20260509020056 71 107 0.0 3.0 0.00 0.12 0.12 78 1008.3
20260509014556 72 131 3.0 7.0 0.00 0.12 0.12 78 1007.9
20260509013102 72 155 3.0 8.0 0.00 0.12 0.12 76 1007.7
20260509011553 72 155 6.0 9.0 0.00 0.12 0.12 76 1007.5
20260509010056 73 182 5.0 8.0 0.00 0.12 0.12 76 1007.5
20260509004611 73 215 5.0 9.0 0.00 0.12 0.12 74 1007.3
20260509003053 74 161 7.0 12.0 0.00 0.12 0.12 70 1007.2
20260509001551 75 128 8.0 14.0 0.00 0.12 0.12 69 1007.0
20260509000050 76 141 8.0 15.0 0.00 0.12 0.12 68 1006.8
20260508234549 76 175 7.0 13.0 0.00 0.12 0.12 67 1007.0
20260508233056 77 148 9.0 14.0 0.00 0.12 0.12 66 1007.2
20260508231546 78 163 8.0 12.0 0.00 0.12 0.12 65 1007.3
20260508230056 78 142 8.0 13.0 0.00 0.12 0.12 64 1007.5
20260508224545 79 149 7.0 15.0 0.00 0.12 0.12 64 1007.4
20260508223044 79 195 6.0 9.0 0.00 0.12 0.12 65 1007.3
20260508221544 78 147 8.0 15.0 0.00 0.12 0.12 64 1007.3
20260508220050 79 132 7.0 12.0 0.00 0.12 0.12 63 1007.4
20260508214546 79 153 10.0 18.0 0.00 0.12 0.12 63 1007.4
20260508213036 79 158 9.0 15.0 0.00 0.12 0.12 61 1007.8
20260508211535 78 175 8.0 16.0 0.00 0.12 0.12 62 1008.2
20260508210036 79 156 8.0 14.0 0.00 0.12 0.12 59 1008.3
20260508204531 78 153 11.0 17.0 0.00 0.12 0.12 62 1008.4
20260508203028 78 136 9.0 19.0 0.00 0.12 0.12 62 1008.7
20260508201527 78 162 10.0 14.0 0.00 0.12 0.12 61 1009.1
20260508200037 76 180 7.0 12.0 0.00 0.12 0.12 63 1009.2
20260508194522 76 144 6.0 12.0 0.00 0.12 0.12 62 1009.5
20260508193022 77 134 6.0 15.0 0.00 0.12 0.12 60 1009.5
20260508191524 77 132 7.0 15.0 0.00 0.12 0.12 61 1009.6
20260508190021 77 120 8.0 13.0 0.00 0.12 0.12 61 1009.6
20260508184526 74 84 8.0 11.0 0.00 0.12 0.12 68 1009.8
20260508183013 73 122 7.0 11.0 0.00 0.12 0.12 75 1010.1
20260508181516 73 127 6.0 10.0 0.00 0.12 0.12 75 1010.5
20260508180006 72 96 5.0 8.0 0.00 0.12 0.12 76 1010.9
20260508174505 70 134 1.0 5.0 0.00 0.12 0.12 77 1011.5
20260508173100 70 190 2.0 7.0 0.00 0.12 0.12 80 1011.7
20260508171558 69 118 4.0 8.0 0.00 0.12 0.12 81 1012.1
20260508170058 67 160 1.0 9.0 0.00 0.12 0.12 81 1012.6
20260508164602 67 127 3.0 6.0 0.00 0.12 0.12 82 1012.6
20260508163051 66 119 4.0 9.0 0.01 0.12 0.12 82 1012.8
20260508161553 65 159 5.0 10.0 0.01 0.12 0.12 81 1013.1
20260508160050 65 167 5.0 7.0 0.01 0.12 0.12 82 1013.2
20260508154550 65 149 4.0 10.0 0.01 0.12 0.12 84 1012.8
20260508153050 65 142 4.0 11.0 0.00 0.11 0.11 83 1013.1
20260508151556 65 147 5.0 9.0 0.00 0.11 0.11 85 1013.2
20260508150053 64 134 3.0 10.0 0.00 0.11 0.11 89 1013.1
20260508144601 62 154 6.0 10.0 0.00 0.11 0.11 91 1013.2
20260508143040 61 129 3.0 7.0 0.00 0.11 0.11 90 1013.5
20260508141545 61 127 2.0 5.0 0.00 0.11 0.11 90 1013.5
20260508140046 60 301 0.0 7.0 0.00 0.11 0.11 90 1014.1
20260508134542 60 132 4.0 9.0 0.01 0.11 0.11 90 1013.7
20260508133104 61 234 5.0 8.0 0.01 0.11 0.11 90 1014.5
20260508131536 60 149 7.0 12.0 0.01 0.11 0.11 92 1013.5
20260508130036 59 144 7.0 10.0 0.01 0.11 0.11 93 1013.8
20260508124534 59 117 1.0 6.0 0.00 0.10 0.10 92 1014.0
20260508123131 59 169 1.0 5.0 0.00 0.10 0.10 93 1014.3
20260508121535 58 139 2.0 7.0 0.00 0.10 0.10 92 1013.9
20260508120028 58 226 0.0 4.0 0.00 0.10 0.10 92 1014.3
20260508114527 58 125 5.0 9.0 0.01 0.10 0.10 91 1013.6
20260508113027 58 153 5.0 10.0 0.03 0.10 0.10 91 1013.5
20260508111526 58 189 3.0 5.0 0.10 0.10 0.10 92 1014.0
20260508110043 58 225 0.0 4.0 0.10 0.10 0.10 92 1013.7
20260508104525 57 230 2.0 9.0 0.09 0.09 0.09 93 1014.1
20260508103023 56 133 1.0 4.0 0.07 0.07 0.07 93 1012.9
20260508101523 56 111 0.0 1.0 0.00 0.00 0.00 92 1012.5
20260508100023 56 111 2.0 4.0 0.00 0.00 0.00 92 1012.6
20260508094519 56 49 1.0 4.0 0.00 0.00 0.00 92 1013.1
20260508093019 57 141 1.0 2.0 0.00 0.00 0.00 91 1013.2
20260508091517 58 141 0.0 5.0 0.00 0.00 0.00 90 1013.5
20260508090024 58 297 0.0 4.0 0.00 0.00 0.00 90 1013.3
20260508084515 58 214 2.0 5.0 0.00 0.00 0.00 89 1013.9
20260508083013 58 225 2.0 11.0 0.00 0.00 0.00 89 1014.0
20260508081513 58 159 4.0 6.0 0.00 0.00 0.00 88 1013.6
20260508080013 57 207 1.0 4.0 0.00 0.00 0.00 90 1014.4